• Em Portugal
  • Lista de países
  • Para 7 dias
  • Temperatura da água
  • Mapas de satélite
  • Mapa do tempo
  • Widgets de tempo
  • user-avatar
    Iniciar Sessão

    Previsão horária em Wojtal

    Hoje, 20 Outubro, Sábado

    Tempo Temperatura Precipitação Vento Pressão Humidade
    00:00 +8°C° 0 mm 1 m/s 756 mmHg 73%
    01:00 +8°C° 0 mm 1 m/s 756 mmHg 74%
    02:00 +8°C° 0 mm 1 m/s 756 mmHg 74%
    03:00 +8°C° 0 mm 1 m/s 756 mmHg 74%
    04:00 +8°C° 0 mm 1 m/s 756 mmHg 74%
    05:00 +8°C° 0 mm 1 m/s 756 mmHg 76%
    06:00 +8°C° 0 mm 1 m/s 756 mmHg 78%
    07:00 +8°C° 0 mm 1 m/s 756 mmHg 79%
    08:00 +9°C° 0 mm 2 m/s 756 mmHg 74%
    09:00 +10°C° 0 mm 2 m/s 757 mmHg 69%
    10:00 +12°C° 0 mm 2 m/s 757 mmHg 64%
    11:00 +11°C° 0 mm 3 m/s 757 mmHg 63%
    12:00 +12°C° 0 mm 3 m/s 757 mmHg 61%
    13:00 +12°C° 0 mm 3 m/s 757 mmHg 60%
    14:00 +11°C° 0.1 mm 3 m/s 757 mmHg 62%
    15:00 +11°C° 0.1 mm 3 m/s 757 mmHg 64%
    16:00 +10°C° 0.1 mm 3 m/s 756 mmHg 66%
    17:00 +10°C° 0 mm 2 m/s 756 mmHg 71%
    18:00 +9°C° 0 mm 2 m/s 757 mmHg 75%
    19:00 +8°C° 0 mm 2 m/s 757 mmHg 80%
    20:00 +8°C° 0 mm 2 m/s 757 mmHg 82%
    21:00 +8°C° 0 mm 2 m/s 757 mmHg 85%
    22:00 +8°C° 0 mm 2 m/s 757 mmHg 87%
    23:00 +7°C° 0 mm 2 m/s 757 mmHg 90%

    Amanhã, 21 Outubro, Domingo

    Tempo Temperatura Precipitação Vento Pressão Humidade
    00:00 +7°C° 0 mm 2 m/s 757 mmHg 92%
    01:00 +7°C° 0 mm 1 m/s 757 mmHg 94%
    02:00 +7°C° 0 mm 1 m/s 757 mmHg 95%
    03:00 +7°C° 0 mm 1 m/s 757 mmHg 95%
    04:00 +7°C° 0 mm 1 m/s 757 mmHg 95%
    05:00 +7°C° 0 mm 1 m/s 757 mmHg 95%
    06:00 +7°C° 0 mm 1 m/s 758 mmHg 95%
    07:00 +7°C° 0 mm 1 m/s 758 mmHg 95%
    08:00 +9°C° 0 mm 1 m/s 758 mmHg 87%
    09:00 +10°C° 0 mm 1 m/s 759 mmHg 80%
    10:00 +12°C° 0 mm 1 m/s 759 mmHg 73%
    11:00 +13°C° 0 mm 1 m/s 759 mmHg 68%
    12:00 +14°C° 0 mm 1 m/s 759 mmHg 63%
    13:00 +15°C° 0 mm 1 m/s 759 mmHg 58%
    14:00 +14°C° 0 mm 1 m/s 759 mmHg 60%
    15:00 +14°C° 0 mm 1 m/s 759 mmHg 62%
    16:00 +13°C° 0 mm 1 m/s 758 mmHg 64%
    17:00 +12°C° 0 mm 1 m/s 758 mmHg 68%
    18:00 +11°C° 0 mm 1 m/s 758 mmHg 72%
    19:00 +10°C° 0 mm 1 m/s 759 mmHg 75%
    20:00 +10°C° 0 mm 1 m/s 758 mmHg 78%
    21:00 +9°C° 0 mm 2 m/s 758 mmHg 81%
    22:00 +8°C° 0 mm 2 m/s 758 mmHg 83%
    23:00 +8°C° 0 mm 2 m/s 758 mmHg 85%

    Depois de amanhã, 22 Outubro, Segunda-feira

    Tempo Temperatura Precipitação Vento Pressão Humidade
    00:00 +7°C° 0 mm 2 m/s 758 mmHg 87%
    01:00 +7°C° 0 mm 2 m/s 758 mmHg 88%
    02:00 +7°C° 0 mm 2 m/s 757 mmHg 89%
    03:00 +7°C° 0 mm 3 m/s 757 mmHg 89%
    04:00 +5°C° 0 mm 3 m/s 756 mmHg 90%
    05:00 +5°C° 0 mm 3 m/s 756 mmHg 90%
    06:00 +5°C° 0 mm 3 m/s 756 mmHg 89%
    07:00 +5°C° 0 mm 3 m/s 756 mmHg 89%
    08:00 +6°C° 0 mm 4 m/s 756 mmHg 82%
    09:00 +8°C° 0 mm 4 m/s 756 mmHg 75%
    10:00 +10°C° 0 mm 4 m/s 756 mmHg 67%
    11:00 +11°C° 0.2 mm 4 m/s 755 mmHg 69%
    12:00 +11°C° 0.2 mm 4 m/s 755 mmHg 70%
    13:00 +11°C° 0.2 mm 4 m/s 755 mmHg 72%
    14:00 +10°C° 0.5 mm 4 m/s 755 mmHg 76%
    15:00 +10°C° 0.5 mm 4 m/s 755 mmHg 79%
    16:00 +8°C° 0.5 mm 4 m/s 755 mmHg 83%
    17:00 +8°C° 0.3 mm 4 m/s 755 mmHg 80%
    18:00 +9°C° 0.3 mm 3 m/s 755 mmHg 78%
    19:00 +8°C° 0.3 mm 3 m/s 755 mmHg 76%
    20:00 +8°C° 0 mm 3 m/s 755 mmHg 75%
    21:00 +8°C° 0 mm 3 m/s 755 mmHg 74%
    22:00 +7°C° 0 mm 3 m/s 755 mmHg 73%
    23:00 +7°C° 0 mm 3 m/s 756 mmHg 75%

    23 Outubro, Terça-feira

    Tempo Temperatura Precipitação Vento Pressão Humidade
    00:00 +5°C° 0 mm 3 m/s 756 mmHg 77%
    01:00 +5°C° 0 mm 3 m/s 756 mmHg 79%
    02:00 +5°C° 0 mm 3 m/s 755 mmHg 80%
    03:00 +4°C° 0 mm 3 m/s 755 mmHg 82%
    04:00 +4°C° 0 mm 3 m/s 755 mmHg 83%
    05:00 +4°C° 0 mm 3 m/s 755 mmHg 84%
    06:00 +4°C° 0 mm 3 m/s 755 mmHg 84%
    07:00 +4°C° 0 mm 3 m/s 754 mmHg 84%
    08:00 +5°C° 0 mm 4 m/s 754 mmHg 80%
    09:00 +6°C° 0 mm 5 m/s 753 mmHg 76%
    10:00 +8°C° 0 mm 6 m/s 752 mmHg 72%
    11:00 +6°C° 0.4 mm 7 m/s 751 mmHg 73%
    12:00 +6°C° 0.4 mm 8 m/s 750 mmHg 74%
    13:00 +6°C° 0.4 mm 8 m/s 749 mmHg 75%
    14:00 +6°C° 1.2 mm 9 m/s 747 mmHg 78%
    15:00 +6°C° 1.2 mm 9 m/s 745 mmHg 80%
    16:00 +6°C° 1.2 mm 10 m/s 744 mmHg 82%
    17:00 +7°C° 1.6 mm 10 m/s 742 mmHg 83%
    18:00 +7°C° 1.6 mm 10 m/s 741 mmHg 83%
    19:00 +8°C° 1.6 mm 10 m/s 739 mmHg 84%
    20:00 +8°C° 2.1 mm 10 m/s 738 mmHg 83%
    21:00 +9°C° 2.1 mm 10 m/s 737 mmHg 83%
    22:00 +11°C° 2.1 mm 10 m/s 735 mmHg 82%
    23:00 +9°C° 0.7 mm 10 m/s 735 mmHg 79%

    24 Outubro, Quarta-feira

    Tempo Temperatura Precipitação Vento Pressão Humidade
    00:00 +9°C° 0.7 mm 10 m/s 735 mmHg 75%
    01:00 +9°C° 0.7 mm 10 m/s 735 mmHg 72%
    02:00 +8°C° 0.2 mm 9 m/s 736 mmHg 73%
    03:00 +9°C° 0.2 mm 8 m/s 737 mmHg 75%
    04:00 +8°C° 0.2 mm 7 m/s 738 mmHg 76%
    05:00 +8°C° 0.2 mm 7 m/s 738 mmHg 74%
    06:00 +6°C° 0.2 mm 7 m/s 739 mmHg 72%
    07:00 +6°C° 0.2 mm 7 m/s 740 mmHg 70%
    08:00 +6°C° 0 mm 8 m/s 740 mmHg 63%
    09:00 +6°C° 0 mm 8 m/s 741 mmHg 56%
    10:00 +6°C° 0 mm 8 m/s 742 mmHg 50%
    11:00 +6°C° 0 mm 8 m/s 742 mmHg 47%
    12:00 +7°C° 0 mm 8 m/s 743 mmHg 44%
    13:00 +7°C° 0 mm 9 m/s 743 mmHg 42%
    14:00 +6°C° 0 mm 7 m/s 743 mmHg 44%
    15:00 +7°C° 0 mm 6 m/s 744 mmHg 46%
    16:00 +6°C° 0 mm 5 m/s 744 mmHg 48%
    17:00 +6°C° 0 mm 5 m/s 744 mmHg 51%
    18:00 +6°C° 0 mm 5 m/s 745 mmHg 55%
    19:00 +6°C° 0 mm 4 m/s 745 mmHg 58%
    20:00 +5°C° 0 mm 4 m/s 745 mmHg 60%
    21:00 +5°C° 0 mm 4 m/s 745 mmHg 62%
    22:00 +5°C° 0 mm 4 m/s 746 mmHg 64%
    23:00 +5°C° 0 mm 4 m/s 745 mmHg 67%

    25 Outubro, Quinta-feira

    Tempo Temperatura Precipitação Vento Pressão Humidade
    00:00 +4°C° 0 mm 3 m/s 745 mmHg 69%
    01:00 +4°C° 0 mm 3 m/s 745 mmHg 72%
    02:00 +4°C° 0 mm 3 m/s 745 mmHg 74%
    03:00 +4°C° 0 mm 4 m/s 744 mmHg 76%
    04:00 +4°C° 0 mm 4 m/s 744 mmHg 78%
    05:00 +6°C° 0.2 mm 5 m/s 743 mmHg 81%
    06:00 +7°C° 0.2 mm 6 m/s 742 mmHg 84%
    07:00 +9°C° 0.2 mm 7 m/s 741 mmHg 86%
    08:00 +9°C° 0.1 mm 8 m/s 741 mmHg 81%
    09:00 +8°C° 0.1 mm 9 m/s 741 mmHg 76%
    10:00 +8°C° 0.1 mm 10 m/s 740 mmHg 71%
    11:00 +10°C° 0.1 mm 9 m/s 740 mmHg 72%
    12:00 +10°C° 0.1 mm 9 m/s 740 mmHg 72%
    13:00 +10°C° 0.1 mm 9 m/s 740 mmHg 73%
    14:00 +10°C° 0.1 mm 9 m/s 739 mmHg 71%
    15:00 +9°C° 0.1 mm 10 m/s 739 mmHg 70%
    16:00 +9°C° 0.1 mm 10 m/s 739 mmHg 68%
    17:00 +10°C° 0.1 mm 9 m/s 739 mmHg 67%
    18:00 +10°C° 0.1 mm 9 m/s 739 mmHg 66%
    19:00 +10°C° 0.1 mm 9 m/s 738 mmHg 66%
    20:00 +8°C° 0.4 mm 9 m/s 738 mmHg 67%
    21:00 +8°C° 0.4 mm 9 m/s 738 mmHg 68%
    22:00 +8°C° 0.4 mm 9 m/s 737 mmHg 70%
    23:00 +8°C° 0.2 mm 9 m/s 737 mmHg 68%
    Mostrar mais